Terug naar catalogus

STARLINK-30113

ActiefCommunicatieVLEO
NORAD 56291·PAYLOAD·🇺🇸 United States

Gelanceerd Apr 19, 2023 vanaf Cape Canaveral Space Force Station

Loading…

Volgende Passages (komende 24 uur)

TLE

VersSource: CelesTrak SupGP

Epoch: Sep 14, 2026, 20:52 UTC

1 56291C 23056F   26257.86993056  .00038076  00000+0  13794-2 0  2573
2 56291  43.0009 220.4534 0001267 253.1660 101.6813 15.27554171    19

Volg STARLINK-30113 in realtime met AllMySat

Download on the App Store